Theta_e
307 309 317 322 322 322 322 320 316 319 323 323 323 322 321 317 316 315 316 316 316 317
299 302 302 301 303 302 303 306 306 306 307 315 322 321 321 320 317 317 316 316 316 316
296 297 297 297 297 297 300 299 299 300 300 300 300 301 304 314 315 317 317 315 316 316
293 294 294 293 293 294 295 295 295 294 294 294 294 296 296 295 295 293 293 294 294 293
293 291 291 290 291 294 294 292 291 291 291 291 290 291 290 289 290 290 290 291 291 291
288 289 288 289 289 290 290 290 290 290 289 289 289 289 289 288 288 287 287 288 288 289
286 286 287 287 288 288 289 288 288 289 288 288 288 288 287 287 286 286 285 286 286 286
285 285 285 285 285 286 286 286 287 287 287 287 287 287 285 285 285 284 283 284 284 285
283 283 283 283 284 284 284 284 284 284 284 284 285 287 286 284 282 282 281 280 281 282
283 282 282 283 282 282 282 283 282 283 283 283 283 285 284 283 281 280 280 280 280 279
282 281 281 281 281 281 281 281 281 281 282 282 283 285 284 283 281 280 280 279 280 280
281 281 281 280 280 280 280 280 280 281 281 281 282 285 284 281 280 279 279 280 280 280
280 280 279 279 279 280 280 280 280 280 280 281 282 286 285 282 280 279 279 280 280 283
280 280 280 279 279 279 278 278 277 278 278 280 280 283 285 284 280 280 279 279 278 280
Wind_Speed
3 2 4 8 4 5 6 3 4 2 6 9 10 11 11 9 10 10 9 13 11 10
4 4 5 8 7 4 3 4 5 4 4 7 11 13 14 11 12 12 13 14 15 13
5 6 6 6 8 7 8 5 7 5 5 4 5 5 4 6 7 11 12 11 15 15
7 8 8 9 9 8 4 6 7 7 6 6 6 6 5 6 7 8 6 6 7 8
8 9 9 10 9 7 9 9 9 8 8 9 8 8 9 10 9 8 8 8 10 10
10 10 12 11 10 11 11 10 10 10 10 9 9 11 10 11 11 11 11 10 10 9
12 11 11 10 11 11 11 11 11 10 11 10 10 11 10 11 12 11 11 11 12 11
12 12 13 13 13 12 14 12 11 11 12 12 11 8 9 10 10 11 11 11 11 12
13 14 14 13 13 12 13 13 12 13 12 13 9 18 18 12 10 9 10 9 9 9
13 14 12 11 11 11 12 11 12 12 11 12 12 18 18 15 9 9 9 9 8 8
13 11 9 11 10 10 9 10 10 10 10 10 10 17 17 16 10 9 10 9 7 8
9 9 8 10 9 8 8 9 9 9 9 9 8 16 14 9 7 9 9 8 9 8
9 10 9 7 7 6 7 8 7 9 9 9 8 15 13 9 5 7 5 6 8 14
9 7 7 7 5 5 7 7 7 8 8 8 8 10 15 14 5 4 4 5 5 4
Wind_Direction
357 1 291 195 219 203 186 142 55 28 242 216 220 218 212 209 211 203 213 223 224 230
38 72 67 81 64 66 61 63 63 66 16 308 235 223 216 212 214 214 216 221 220 225
63 64 69 51 98 49 46 30 71 50 46 17 13 5 4 254 242 226 224 226 222 217
60 73 68 68 61 59 52 49 63 58 56 40 28 29 63 61 50 51 42 55 69 62
65 71 77 74 63 72 65 51 56 61 62 57 50 40 57 58 42 60 66 51 65 62
51 62 65 67 71 67 68 64 63 61 61 60 59 72 60 69 66 57 51 54 64 60
51 51 60 64 66 66 66 66 62 60 64 62 59 61 70 73 73 67 62 56 55 52
54 56 56 55 58 60 58 56 55 61 55 54 55 52 64 69 75 74 66 62 62 56
50 50 48 47 55 59 63 60 58 56 58 57 55 61 67 65 70 70 65 62 58 56
49 53 47 47 53 54 63 68 64 63 65 68 69 65 60 57 61 61 61 56 53 55
55 48 49 55 48 51 53 59 65 57 53 64 64 68 70 66 65 62 56 57 55 64
42 55 44 53 44 46 63 58 57 59 60 62 60 69 71 67 66 65 56 57 52 48
42 49 45 50 47 39 61 63 57 57 47 48 59 63 70 67 60 75 63 49 49 62
35 47 40 43 33 38 56 62 54 61 44 41 39 54 60 64 61 68 66 52 37 28